RH
58 57 58 60 63 63 58 57 60 67 70 66 61 61 61 62 63 62 63 64 65 65 64 63 62 62 63 62 59 56 54 54 55 54 55 58 52 48 47 46 47 46 43 39 36 38 43 44 40 34 31 29 28 25 23 23 24 25 26 26 24 24 23 22 22 21 22 21 21 20 20 20 20 21 21 20 20 19 17 15 14 13 13 12 11
53 56 56 56 59 61 61 60 61 69 71 65 61 59 59 64 65 64 68 68 66 67 66 64 64 63 62 61 59 59 60 59 61 61 62 66 62 57 58 54 52 49 46 43 38 39 44 46 44 41 37 33 33 34 28 23 23 23 25 26 26 26 24 23 22 22 22 22 21 21 21 20 20 20 20 20 21 20 20 19 17 15 14 13 13
52 52 50 50 54 56 60 60 60 66 66 63 63 62 61 66 68 69 73 74 70 68 67 68 67 66 65 60 57 58 63 64 64 66 68 73 70 64 65 64 60 57 52 47 42 40 43 46 46 45 43 38 36 40 36 27 24 23 23 24 25 26 26 26 24 23 22 22 22 21 21 21 21 20 20 21 20 21 20 20 20 18 17 15 14
49 47 46 48 49 49 57 61 60 65 64 64 68 67 63 63 68 69 71 75 75 70 67 70 71 70 67 63 61 57 59 62 64 68 68 72 74 67 67 70 69 67 61 54 48 43 41 45 48 47 47 43 38 38 37 32 27 25 25 24 24 25 26 27 26 25 24 23 22 22 21 21 20 20 20 20 20 21 20 20 21 20 19 18 16
46 45 44 47 47 47 59 65 61 63 64 65 68 66 62 62 64 65 67 70 73 76 73 70 70 70 68 66 65 61 59 60 61 65 66 68 72 69 69 73 72 70 65 60 55 50 42 41 42 45 48 46 39 36 36 35 32 30 29 28 27 26 25 25 25 26 25 24 24 22 21 21 20 20 19 20 20 20 20 20 20 20 21 20 19
46 45 42 44 49 49 58 62 58 61 61 61 62 60 60 62 62 64 70 70 70 75 74 72 72 69 68 67 66 66 64 62 62 64 65 68 72 71 71 73 72 71 69 66 62 55 45 38 35 37 41 40 37 35 36 37 33 31 34 35 35 32 27 24 23 24 25 25 25 24 23 21 20 19 18 18 19 20 20 20 20 20 20 20 20
44 42 40 43 49 50 56 59 57 60 59 58 58 56 57 60 61 62 66 68 68 72 71 75 80 72 68 67 65 66 65 64 66 65 66 70 72 71 71 72 73 74 75 73 70 62 52 44 39 36 35 35 36 35 37 38 31 28 34 38 37 35 32 28 24 23 22 22 23 24 24 23 21 20 19 18 17 18 18 19 19 19 20 20 21
40 41 43 44 48 50 53 55 56 59 59 59 58 54 53 59 62 61 61 62 63 68 68 71 78 75 70 67 64 65 64 63 66 66 66 69 70 71 73 74 74 76 77 74 73 69 64 57 48 41 39 40 41 38 39 41 34 29 33 35 36 35 33 32 30 26 23 22 22 22 22 23 23 22 21 19 18 17 18 18 18 19 19 20 21
37 40 43 45 47 48 50 51 52 57 60 60 54 49 51 57 62 59 57 60 61 64 69 72 76 74 68 65 63 63 62 62 64 64 63 63 65 67 70 76 79 80 79 77 75 74 72 68 58 49 45 45 46 43 42 44 39 34 34 35 37 37 36 35 33 30 27 25 23 22 22 22 23 23 23 22 21 19 18 18 18 18 18 19 20
34 37 40 44 44 45 50 51 53 58 58 56 51 44 48 54 57 57 55 59 61 63 70 73 75 72 66 64 61 59 60 62 62 61 60 59 62 65 68 77 85 85 82 80 78 75 72 72 69 62 56 51 50 47 46 46 44 42 41 39 39 38 38 37 36 34 31 29 28 26 25 23 23 24 24 24 24 23 22 20 19 18 19 19 21
28 34 38 41 41 42 48 52 58 59 52 52 51 47 50 50 47 51 54 58 60 62 66 65 69 71 67 64 61 60 61 61 62 62 59 57 62 67 68 78 89 87 83 81 79 77 73 72 72 70 67 62 57 53 50 48 47 47 45 44 43 41 39 39 39 38 36 34 32 30 28 27 25 24 24 24 25 25 24 23 22 20 21 21 22
26 32 36 36 34 37 45 49 53 53 47 50 54 53 54 49 45 50 53 59 63 63 62 62 67 69 64 62 62 63 63 62 63 64 61 59 62 66 68 78 87 84 79 78 76 75 76 77 76 73 71 69 65 62 58 53 51 53 53 50 50 47 44 42 41 39 38 37 36 34 32 31 30 28 26 25 25 26 26 25 25 24 24 24 25
28 31 34 34 33 36 42 42 43 45 45 51 56 53 48 44 49 55 54 57 63 62 59 62 65 63 60 61 61 60 62 63 63 62 62 64 64 62 62 69 76 77 75 76 75 74 76 80 82 79 76 73 71 69 67 65 61 60 60 58 57 54 50 46 42 39 37 36 35 35 34 34 34 34 32 30 28 27 28 29 29 28 28 28 28
27 27 29 32 34 37 38 37 40 40 40 43 46 44 40 40 47 55 57 54 56 57 57 59 61 61 60 60 59 58 60 63 63 64 65 68 69 64 60 64 70 72 73 75 75 75 76 76 79 81 81 80 77 75 75 75 73 69 66 64 62 60 58 54 49 45 41 37 36 35 35 35 36 38 39 39 36 33 31 32 34 35 34 34 32
26 24 26 27 27 30 31 31 32 31 33 35 36 36 37 40 42 50 56 51 51 54 53 55 57 60 62 58 56 55 59 62 59 62 64 65 71 71 68 71 74 75 78 82 81 81 80 79 81 81 81 81 78 77 78 80 80 77 74 72 69 66 64 61 57 54 49 44 42 41 41 40 41 43 44 46 46 43 40 38 38 39 40 40 39
29 28 28 25 22 25 26 24 23 25 30 33 36 37 36 38 39 42 45 45 53 57 51 50 51 54 58 57 56 55 58 61 56 57 59 57 65 73 73 73 77 81 82 83 85 86 84 84 85 82 80 79 75 72 73 77 81 82 82 79 76 74 70 68 66 62 57 54 51 49 49 49 49 50 51 52 52 52 51 47 44 43 43 44 45
31 30 29 27 25 26 25 24 23 24 32 38 39 39 36 36 38 38 39 39 49 56 50 45 46 49 50 52 54 52 56 63 60 56 53 52 57 67 73 73 75 80 78 76 79 82 82 84 84 81 82 83 79 74 71 72 76 81 84 83 81 80 77 76 73 68 64 60 58 55 55 54 54 55 56 57 57 57 58 56 52 48 45 46 46
32 31 31 31 29 27 26 28 29 26 29 36 38 38 35 33 36 38 40 39 39 45 46 43 42 43 43 46 50 51 55 61 59 56 55 56 56 58 65 70 72 75 74 72 72 75 77 79 80 80 80 80 82 83 82 78 76 80 85 85 85 84 81 79 76 73 68 63 60 60 59 58 59 60 61 63 64 64 64 64 63 59 54 52 51
35 34 33 33 31 29 28 28 30 28 27 32 35 37 35 33 35 38 42 42 38 40 44 42 41 42 40 40 45 50 50 48 50 55 57 58 57 55 57 64 69 69 68 69 67 68 71 72 77 78 76 76 77 81 86 85 83 85 86 86 87 87 86 84 81 78 75 69 66 66 66 65 67 68 69 69 70 70 72 71 70 69 65 61 59
38 36 33 32 31 30 30 29 28 25 25 31 34 33 34 31 28 31 38 39 36 40 45 41 42 48 46 39 37 41 42 41 43 47 51 54 58 59 58 60 63 63 67 70 66 63 63 63 67 69 67 69 70 73 79 82 83 84 85 84 84 85 86 87 87 85 84 81 78 75 74 74 75 76 75 76 76 76 77 76 72 72 72 69 65
40 37 35 34 32 30 29 29 28 26 24 28 29 28 32 30 23 25 33 35 33 36 40 40 41 48 52 48 42 40 43 48 47 45 47 52 58 60 60 60 62 67 71 71 65 60 59 57 58 61 61 61 63 68 73 76 78 79 81 82 81 80 82 85 88 89 89 89 88 86 84 82 81 80 78 78 77 78 79 78 76 75 74 73 71
41 40 39 37 35 33 30 27 28 27 26 27 26 24 23 23 20 20 24 29 32 30 31 35 38 42 47 49 48 46 49 56 61 59 52 50 55 59 62 65 69 75 75 69 63 59 57 57 56 58 59 58 60 63 66 68 71 74 77 80 80 80 81 85 89 90 91 92 93 92 91 89 86 84 82 80 79 78 77 76 77 77 77 77 75
42 40 40 36 32 30 29 27 26 27 28 28 27 26 23 22 21 19 19 24 29 28 27 31 33 34 36 39 43 47 51 55 63 66 58 53 55 58 64 69 71 74 73 67 62 59 58 59 59 60 60 61 61 62 63 64 65 69 73 74 73 73 72 75 80 83 87 90 91 91 90 89 88 86 85 83 81 80 76 73 73 75 79 80 79
44 40 38 36 31 27 26 24 22 23 25 26 27 27 26 25 25 23 22 22 24 25 25 26 28 29 28 29 31 34 39 42 46 52 54 56 58 57 61 63 59 61 63 61 58 56 57 57 59 61 62 62 62 62 63 62 62 64 66 64 62 61 59 59 63 67 73 77 81 84 87 88 88 87 85 83 81 81 78 76 74 74 77 78 78
47 42 41 42 38 31 27 23 21 20 22 23 25 27 25 24 25 24 22 20 18 18 17 17 22 24 24 23 22 22 24 26 30 36 44 53 56 54 55 53 49 51 54 54 52 48 48 50 52 56 58 57 57 57 57 57 58 60 61 59 57 54 52 50 51 55 60 65 71 77 82 84 83 83 84 82 81 79 77 74 72 71 71 72 71
51 48 48 46 39 32 27 25 23 23 23 21 23 27 26 24 23 20 18 16 15 15 13 12 14 18 20 21 21 20 20 20 21 25 35 48 49 44 48 49 45 46 51 52 47 37 34 36 38 41 44 44 46 47 49 50 51 52 52 51 48 44 41 39 38 40 43 48 54 63 70 73 73 72 70 68 68 69 69 69 69 68 69 69 69
54 48 46 43 37 31 28 26 26 26 27 27 28 29 28 26 20 15 15 13 12 13 12 11 11 11 16 20 21 19 19 20 20 20 30 44 47 43 45 45 41 42 46 47 38 25 22 23 24 27 29 29 32 34 37 37 37 37 35 33 33 31 28 27 26 25 26 28 32 39 46 49 50 49 45 42 42 41 44 49 56 61 65 69 71
51 43 42 42 38 33 31 29 30 31 31 34 34 31 30 27 20 15 17 15 12 13 13 12 11 9 13 19 21 18 18 19 19 20 24 31 37 40 40 42 44 44 43 42 32 21 19 19 20 23 23 23 23 23 25 24 23 22 22 21 20 19 19 18 17 16 17 17 19 21 24 25 26 26 25 24 23 21 21 25 32 38 44 50 56
48 42 40 40 37 34 33 33 34 35 35 37 37 35 34 32 25 20 18 16 14 14 14 13 12 13 17 21 22 19 17 17 16 17 20 22 24 29 31 34 40 42 44 45 35 23 20 18 18 20 22 22 21 20 21 19 17 17 17 16 16 16 15 15 15 15 16 16 16 17 17 17 17 17 17 17 16 15 15 17 19 22 26 30 35
47 42 40 40 38 37 38 39 40 40 39 40 40 40 39 36 32 28 24 23 21 19 18 18 18 18 21 24 24 19 17 17 16 15 18 21 20 21 23 24 28 34 42 45 36 24 20 18 16 17 18 19 18 17 17 16 16 16 16 15 16 16 16 16 17 17 17 18 18 19 19 19 19 19 19 19 18 18 18 18 18 19 20 21 24
47 42 41 42 41 41 44 45 45 44 43 43 44 46 46 42 40 36 33 33 31 28 28 28 27 27 27 31 31 28 26 26 25 23 24 26 24 22 22 22 23 26 32 33 28 23 21 20 19 18 18 19 19 19 18 17 17 17 17 17 17 18 19 19 20 20 20 21 21 21 22 22 22 22 22 22 21 21 21 21 21 20 21 21 21
49 46 44 43 44 46 48 47 48 46 45 47 50 54 57 57 54 47 42 43 43 40 38 36 37 38 37 37 36 35 37 37 35 34 32 33 32 31 30 30 29 29 29 29 29 29 28 27 27 26 26 25 25 25 25 24 23 22 23 23 22 22 23 23 23 23 23 24 23 24 24 24 24 24 23 23 23 22 22 21 21 21 21 22 22
52 51 47 44 45 49 53 55 55 52 50 51 54 60 65 64 62 58 54 56 55 52 49 46 45 44 42 42 39 37 41 43 41 40 39 38 38 37 37 37 37 37 36 35 35 35 34 32 31 31 31 30 30 31 31 32 31 30 29 29 28 28 28 27 28 28 28 27 28 28 28 27 27 26 25 24 23 23 22 22 22 22 21 21 21
50 52 52 48 45 49 56 61 62 61 60 59 61 66 68 64 63 63 63 64 64 62 61 59 56 52 48 49 46 41 41 44 44 44 44 43 42 40 40 40 41 42 42 40 40 40 39 38 37 37 37 37 35 35 37 38 37 36 35 35 34 34 34 33 33 34 34 31 30 30 29 29 29 28 28 26 25 24 23 22 22 21 21 21 20
44 50 54 52 49 52 58 61 60 62 66 66 66 68 68 65 64 65 68 69 69 69 69 68 67 64 61 60 57 52 49 50 53 54 54 51 48 45 44 45 46 46 47 46 46 48 48 48 48 47 46 47 44 41 41 41 41 40 39 39 39 38 39 38 36 36 36 34 32 30 29 28 28 28 29 29 28 27 26 25 24 23 22 20 20
42 46 50 52 54 59 62 62 58 58 62 66 69 69 68 67 67 68 70 72 73 74 74 73 73 73 71 70 68 65 62 62 64 65 65 62 59 55 52 52 53 55 55 56 56 57 57 55 56 55 53 52 49 47 46 45 44 43 42 42 43 43 43 43 41 39 38 37 35 32 31 30 28 27 27 27 28 28 28 27 26 26 25 23 22
44 45 47 50 55 59 61 61 59 60 62 65 70 73 72 71 72 73 73 72 74 76 76 76 75 75 75 74 74 72 71 71 72 70 69 66 65 65 64 63 63 63 64 65 66 65 63 62 62 61 59 56 54 53 53 52 51 50 50 49 49 48 47 46 45 43 42 40 37 33 31 30 28 27 25 24 24 24 25 25 26 26 26 25 23
48 48 49 50 54 56 59 61 63 65 65 65 68 71 71 70 71 73 73 72 74 75 76 76 74 73 74 74 75 74 72 73 73 71 69 65 63 66 69 70 71 70 70 70 70 68 68 70 70 68 66 64 63 63 61 60 59 59 58 56 54 51 49 47 46 44 42 41 40 36 34 32 30 29 27 24 22 21 21 21 22 23 23 23 22
50 49 49 51 53 54 56 59 62 63 63 64 67 67 67 66 68 72 73 71 71 73 75 76 73 70 70 72 74 73 72 72 72 69 67 64 62 62 63 66 68 69 70 71 71 73 73 74 76 76 72 69 68 67 65 63 62 59 56 55 55 53 49 46 45 43 41 41 42 41 39 37 34 31 29 27 24 22 21 21 21 21 22 22 22
53 52 51 51 52 52 52 53 55 56 58 61 64 67 68 67 68 72 72 70 72 74 76 77 74 70 69 69 69 71 73 73 70 68 67 65 65 64 61 62 62 61 63 66 69 73 72 70 75 78 76 74 72 69 65 62 60 59 56 54 55 53 49 46 45 44 42 40 42 44 42 40 37 34 33 30 26 25 23 21 21 21 21 21 21
59 59 60 58 55 55 53 52 53 53 56 61 64 66 67 67 69 72 71 70 70 70 72 77 76 72 70 67 66 66 67 66 63 60 60 59 61 62 61 62 61 59 59 60 61 63 65 66 70 72 73 76 77 73 67 62 59 58 56 55 54 53 51 50 49 47 45 43 44 46 44 41 38 35 33 32 31 29 27 24 23 21 20 20 20
67 66 66 63 64 62 58 61 63 57 58 65 67 65 63 63 66 70 72 71 68 66 72 76 72 68 68 67 65 63 61 59 56 52 50 48 49 52 53 54 56 56 55 54 52 53 57 60 62 64 67 69 70 68 64 59 55 52 51 51 52 50 49 49 48 47 46 44 45 46 45 42 39 36 34 34 33 31 29 28 26 23 22 21 21
72 69 65 62 65 63 59 67 76 72 67 66 64 63 63 61 61 65 69 71 68 65 69 71 66 64 68 69 66 61 55 53 49 43 39 38 39 41 42 44 46 46 47 47 45 44 45 47 48 49 51 53 56 60 60 54 48 44 42 43 43 42 41 39 39 40 41 40 40 41 39 37 35 34 33 31 31 30 30 30 28 25 23 22 22
69 70 68 68 69 64 59 68 79 79 72 65 63 64 65 63 59 59 62 64 61 59 60 60 59 62 65 65 62 56 48 43 39 36 33 33 35 36 36 36 38 39 40 42 41 39 38 38 38 38 39 42 46 49 50 46 41 37 35 34 35 35 33 32 32 33 33 33 32 30 28 27 27 27 26 26 26 26 26 25 25 24 23 21 20
70 71 72 73 70 64 63 71 76 73 68 65 63 62 61 59 56 54 55 55 53 52 51 50 51 53 52 52 51 48 44 39 37 40 43 39 36 34 32 31 33 36 39 41 42 42 38 36 37 37 37 39 39 38 39 38 36 34 33 33 33 32 32 31 31 30 29 28 27 26 24 23 24 26 25 24 24 24 23 23 23 22 21 19 18
69 67 66 66 63 60 65 72 73 68 62 60 58 55 53 51 46 42 42 41 41 42 40 38 41 43 42 42 42 44 47 46 42 44 48 45 38 33 31 31 32 34 37 39 41 44 41 38 38 38 38 39 39 38 38 37 36 36 35 35 35 34 33 32 30 29 28 28 28 28 28 27 28 28 26 25 25 24 23 24 23 22 21 20 19
60 60 61 60 60 62 68 72 69 62 57 55 53 50 48 45 39 36 34 33 37 39 35 32 35 37 38 38 42 47 48 47 44 43 45 46 44 41 39 38 36 34 35 38 39 43 44 42 40 40 41 41 40 38 38 38 37 37 37 36 36 35 33 31 30 30 29 29 29 28 28 27 27 27 26 25 25 24 24 24 23 22 21 21 21
57 58 59 58 57 61 66 67 63 56 51 49 44 41 43 42 41 44 43 41 43 44 41 38 38 37 36 38 45 50 44 39 40 40 39 42 46 46 45 45 43 38 37 41 42 42 44 44 43 42 42 41 41 39 39 38 38 37 37 36 35 33 31 31 30 30 29 27 26 26 25 24 24 24 25 25 24 24 24 24 23 23 22 22 23
53 55 56 56 55 58 59 58 55 47 41 39 36 34 37 38 38 45 49 47 48 49 49 47 43 38 35 37 44 49 43 37 38 40 39 41 45 47 46 46 45 41 39 42 43 42 43 43 41 41 40 39 39 38 38 38 37 37 36 34 32 30 29 29 28 27 27 27 26 25 25 24 24 24 25 25 24 24 24 24 23 23 23 24 24
51 52 54 53 53 53 53 55 55 49 41 38 37 35 37 38 38 45 50 51 52 53 54 55 50 42 38 38 41 45 42 39 38 39 38 39 44 47 46 45 45 44 42 42 42 42 42 41 39 39 38 38 38 37 37 37 37 36 34 32 29 27 27 29 29 28 28 27 27 26 26 25 25 25 24 24 23 23 23 23 23 23 23 23 23
55 53 52 51 49 49 51 53 54 55 51 45 43 42 42 41 42 45 51 55 54 54 57 59 57 49 43 42 41 41 41 40 38 37 36 38 44 49 48 45 44 44 44 45 43 42 42 41 40 39 38 37 37 37 36 35 34 33 32 30 28 27 29 32 31 30 29 27 27 27 26 26 25 24 24 23 22 22 22 21 22 22 21 22 22